[[{"header":{"parameterUnit":"m.s-1","parameterCategory":1,"la1":30.2991,"la2":30.254,"lo1":-89.0895,"lo2":-89.0444,"dx":0.0017,"dy":0.0017,"nx":28,"ny":28,"refTime":"2022-12-29T15:00:00:Z","depth":0,"parameterNumber":2,"parameterNumberName":"U-component_of_WINDS"},"data":[0,0,0,0,0,0,0,0,0,0,0,0,0,0,0,0,0,0,0,0,0,0,0,0,0,0,0,0,0,0,0,0,0,0,0,0,0,0,0,0,0,0,0,0,0,0,0,0,0,0,0,0,0,0,0,0,0,0,-4.0017,-4.0018,0,-4.0108,-4.0109,-4.011,-4.0064,-4.0062,-4.0059,-4.0057,-4.0153,-4.0157,-4.0162,0,0,0,0,0,0,0,0,0,0,0,0,0,-3.9807,-3.9812,-4.0017,-4.0018,-4.002,-4.0108,-4.0109,-4.011,-4.0064,-4.0061,-4.0059,-4.0056,-4.0151,-4.0157,-4.0162,0,0,0,0,0,0,0,0,0,0,0,0,0,-3.9898,-3.9813,-4.0017,-4.0007,-4.0007,-4.0108,-4.0109,-4.0111,-4.0065,-4.0061,-4.0058,-4.0054,-4.0149,-4.0156,-4.0163,-4.0279,0,0,-4.0185,-4.0188,0,0,0,0,0,0,0,0,-3.9893,-3.9906,-4.0008,-4.0008,-4.0008,-4.0071,-4.007,-4.0167,-4.0066,-4.0043,-4.0057,-4.0053,-4.0129,-4.0137,-4.0162,-4.0284,-4.0288,-4.0186,-4.019,-4.0193,-4.0195,0,0,0,0,0,0,0,-3.9887,-3.9902,-4.0053,-4.0009,-4.001,-3.9999,-4.0008,-4.0088,-4.0105,-4.0045,-4.0042,-4.0053,-4.0128,-4.0155,-4.0164,-4.0289,-4.0186,-4.0192,-4.0196,-4.0199,-4.0511,-4.0515,0,0,0,0,0,0,-3.9881,-3.9897,-4.005,-4.0056,-3.9941,-4.0006,-4.0016,-4.0054,-4.0104,-4.0108,-4.0056,-4.005,-4.0145,-4.0156,-4.0167,-4.0306,-4.0193,-4.02,-4.0204,-4.0507,-4.0512,-4.0517,0,0,0,0,0,0,-3.9877,-3.9895,-4.0047,-3.9976,-3.9994,-4.0013,-4.0057,-4.0058,-4.0085,-4.0112,-4.0115,-4.008,-4.0142,-4.0157,-4.0252,-4.0309,-4.0203,-4.021,-4.0503,-4.0509,-4.0514,-4.0585,0,0,0,0,0,0,-3.9871,-3.9894,-3.9937,-3.9977,-3.9998,-4.0129,-4.0061,-4.0063,-4.0097,-4.0091,-4.0136,-4.014,-4.0141,-4.0241,-4.0259,-4.0317,-4.0215,-4.0498,-4.0505,-4.0512,-4.0578,-4.0593,-4.0606,0,0,0,0,0,-3.9863,-3.9954,-3.994,-3.9958,-4.0053,-4.0132,-4.0144,-4.0142,-4.0102,-4.0147,-4.0164,-4.0139,-4.03,-4.0251,-4.0271,-4.0332,-4.0494,-4.0503,-4.0512,-4.0572,-4.059,-4.0606,0,0,0,0,0,0,-3.9921,-3.9959,-3.9943,-4.005,-4.0088,-4.0124,-4.018,-4.0162,-4.0213,-4.0205,-4.0201,-4.0212,-4.031,-4.0331,-4.0276,-4.0447,-4.0391,-4.0404,-4.043,-4.0447,-4.0461,-4.0454,-4.0221,0,0,0,0,0,-3.9946,-4.0007,-4.0037,-4.0128,-4.0148,-4.0161,-4.0195,-4.019,-4.023,-4.0247,-4.0271,-4.0311,-4.0371,-4.0411,-4.0467,-4.0581,-4.059,-4.0633,-4.0647,-4.0658,-4.0669,-4.0731,-4.075,-4.0546,-4.0546,-4.0546,0,0,-3.9999,-4.0027,-4.0065,-4.014,-4.0169,-4.0233,-4.0175,-4.0244,-4.0291,-4.0257,-4.0347,-4.0367,-4.0412,-4.0517,-4.0564,-4.0537,-4.0728,-4.067,-4.0678,-4.0684,-4.0743,-4.0762,-4.0779,-4.0552,-4.0551,-4.055,0,0,-4.0126,-4.0154,-4.0232,-4.0263,-4.0307,-4.0316,-4.0335,-4.0374,-4.0385,-4.0476,-4.0452,-4.0509,-4.0612,-4.0644,-4.0675,-4.0816,-4.0795,-4.0835,-4.0908,-4.0968,-4.0984,-4.0998,-4.1049,-4.1067,-4.0846,-4.0847,-4.0847,0,-4.0186,-4.028,-4.0275,-4.0347,-4.0381,-4.0352,-4.0432,-4.0462,-4.0524,-4.0548,-4.0516,-4.0645,-4.0674,-4.0786,-4.082,-4.0846,-4.0868,-4.0829,-4.0982,-4.0996,-4.101,-4.1057,-4.1076,-4.0851,-4.0851,-4.085,-4.085,0,-4.0351,-4.0416,-4.0475,-4.0534,-4.0574,-4.065,-4.0658,-4.0699,-4.0692,-4.0704,-4.0796,-4.083,-4.0892,-4.0919,-4.0912,-4.103,-4.1012,-4.0982,-4.0925,-4.1034,-4.1078,-4.1097,-4.0858,-4.0856,-4.0855,-4.0854,0,0,-4.0516,-4.0572,-4.0594,-4.062,-4.0668,-4.0719,-4.0794,-4.0854,-4.089,-4.0934,-4.0997,-4.1085,-4.1057,-4.1091,-4.1089,-4.1142,-4.1251,-4.1105,-4.1106,-4.113,-4.1383,-4.1405,-4.1426,-4.1238,-4.1241,-4.1244,-4.1379,0,-4.0647,-4.0776,-4.0775,-4.0895,-4.0956,-4.093,-4.0996,-4.1032,-4.1046,-4.11,-4.1115,-4.1178,-4.1136,-4.1157,-4.1209,-4.1227,-4.1302,-4.1217,-4.1296,-4.1299,-4.1285,-4.145,-4.1473,-4.1599,-4.1397,-4.14,-4.1402,0,-4.0816,-4.0864,-4.099,-4.1029,-4.1055,-4.1113,-4.1169,-4.1221,-4.1262,-4.1269,-4.1308,-4.1296,-4.1373,-4.1315,-4.1422,-4.1364,-4.1397,-4.1411,-4.1416,-4.1422,-4.1356,-4.146,-4.1639,-4.1658,-4.143,-4.1428,-4.1426,0,-4.0924,-4.1021,-4.1108,-4.1132,-4.118,-4.1221,-4.1243,-4.1281,-4.1318,-4.1367,-4.1391,-4.1449,-4.1481,-4.1526,-4.1531,-4.1489,-4.1638,-4.1581,-4.1646,-4.1646,-4.1678,-4.1675,-4.1864,-4.17,-4.17,-4.17,-4.1699,0,-4.1069,-4.1147,-4.1157,-4.1211,-4.1298,-4.1297,-4.1383,-4.1401,-4.1436,-4.1493,-4.1476,-4.1531,-4.1535,-4.1591,-4.1596,-4.1683,-4.1698,-4.1706,-4.1706,-4.1707,-4.1706,-4.1727,-4.1718,-4.1705,-4.1704,-4.1703,-4.1702,0,-4.1203,-4.1213,-4.1307,-4.1345,-4.1356,-4.1418,-4.1451,-4.1503,-4.1515,-4.1588,-4.1605,-4.1625,-4.1691,-4.17,-4.1778,-4.1781,-4.1886,-4.1877,-4.1871,-4.187,-4.1934,-4.1927,-4.2142,-4.217,-4.1989,-4.1991,-4.1992,0,-4.1295,-4.1354,-4.1398,-4.1435,-4.1459,-4.1519,-4.1556,-4.1557,-4.1597,-4.1649,-4.1695,-4.1759,-4.181,-4.1916,-4.1938,-4.1997,-4.199,-4.2061,-4.1998,-4.1997,-4.199,-4.1986,-4.1992,-4.2072,-4.2074,-4.2076,-4.2077,0,-4.1456,-4.1458,-4.1511,-4.1568,-4.1612,-4.1656,-4.1698,-4.173,-4.1737,-4.1783,-4.1849,-4.1889,-4.1967,-4.2031,-4.209,-4.2114,-4.2097,-4.2097,-4.2115,-4.2116,-4.2109,-4.2113,-4.1903,-4.2092,-4.209,-4.2089,-4.2088,-4.2088,-4.1571,-4.1622,-4.1661,-4.1722,-4.1753,-4.1793,-4.1843,-4.1862,-4.1917,-4.198,-4.1979,-4.2052,-4.2093,-4.217,-4.2198,-4.2256,-4.2233,-4.2259,-4.2265,-4.2272,-4.2277,-4.2101,-4.2267,-4.2266,-4.2266,-4.2265,-4.2265,0,-4.173,-4.1754,-4.181,-4.1869,-4.1917,-4.1897,-4.1942,-4.1984,-4.2048,-4.2087,-4.2138,-4.2214,-4.2276,-4.2303,-4.2364,-4.2405,-4.2399,-4.2421,-4.2417,-4.2423,-4.2295,-4.2273,-4.2425,-4.2425,-4.2425,-4.2425,-4.2425,-4.2425,-4.1819,-4.1905,-4.1912,-4.2013,-4.2037,-4.2108,-4.2135,-4.2172,-4.2203,-4.2289,-4.234,-4.2357,-4.2392,-4.2455,-4.2511,-4.2517,-4.254,-4.2566,-4.2569,-4.2448,-4.2432,-4.2417,-4.2396,-4.2571,-4.2571,-4.2692,-4.2693,-4.2694]},{"header":{"parameterUnit":"m.s-1","parameterCategory":1,"la1":30.2991,"la2":30.254,"lo1":-89.0895,"lo2":-89.0444,"dx":0.0017,"dy":0.0017,"nx":28,"ny":28,"refTime":"2022-12-29T15:00:00:Z","depth":0,"parameterNumber":3,"parameterNumberName":"V-component_of_WINDS"},"data":[0,0,0,0,0,0,0,0,0,0,0,0,0,0,0,0,0,0,0,0,0,0,0,0,0,0,0,0,0,0,0,0,0,0,0,0,0,0,0,0,0,0,0,0,0,0,0,0,0,0,0,0,0,0,0,0,0,0,1.06,1.0601,0,1.0684,1.0685,1.0686,1.0742,1.0742,1.0743,1.0743,1.0827,1.0829,1.0831,0,0,0,0,0,0,0,0,0,0,0,0,0,1.0488,1.049,1.06,1.0601,1.0602,1.0683,1.0685,1.0686,1.0742,1.0743,1.0743,1.0743,1.0827,1.0829,1.0831,0,0,0,0,0,0,0,0,0,0,0,0,0,1.0551,1.049,1.0599,1.064,1.0644,1.0683,1.0685,1.0686,1.0742,1.0743,1.0743,1.0744,1.0826,1.0828,1.0831,1.0836,0,0,1.084,1.0841,0,0,0,0,0,0,0,0,1.0547,1.0555,1.0633,1.0637,1.0642,1.0703,1.0676,1.0736,1.0742,1.0705,1.0743,1.0744,1.0785,1.0791,1.0806,1.084,1.0844,1.084,1.0842,1.0843,1.0844,0,0,0,0,0,0,0,1.0543,1.0551,1.0633,1.0634,1.064,1.0654,1.0663,1.0688,1.074,1.0708,1.0712,1.0722,1.0788,1.0803,1.0808,1.0845,1.084,1.0842,1.0844,1.0845,1.0891,1.089,0,0,0,0,0,0,1.0532,1.0547,1.063,1.0635,1.0595,1.0655,1.0666,1.0683,1.074,1.075,1.0721,1.0724,1.0798,1.0805,1.0811,1.0823,1.0843,1.0845,1.0847,1.0891,1.0891,1.089,0,0,0,0,0,0,1.0529,1.0539,1.0627,1.0593,1.0605,1.0656,1.0675,1.0684,1.0699,1.075,1.076,1.0727,1.0799,1.0807,1.083,1.0827,1.0847,1.0849,1.0892,1.0891,1.089,1.0845,0,0,0,0,0,0,1.0526,1.0538,1.054,1.0592,1.0606,1.0644,1.0675,1.0685,1.0704,1.0709,1.0758,1.0767,1.08,1.0826,1.0833,1.0831,1.0851,1.0892,1.0891,1.0891,1.0847,1.0843,1.0839,0,0,0,0,0,1.0522,1.0523,1.054,1.0549,1.061,1.0644,1.0652,1.0691,1.0704,1.0707,1.074,1.0765,1.0826,1.0828,1.0836,1.0835,1.0893,1.0892,1.0891,1.0849,1.0844,1.0839,0,0,0,0,0,0,1.0467,1.053,1.055,1.0568,1.06,1.0654,1.0658,1.0684,1.0712,1.0715,1.0761,1.0772,1.0791,1.0815,1.0816,1.0844,1.0862,1.0863,1.0828,1.0823,1.0819,1.0813,1.0854,0,0,0,0,0,1.0457,1.048,1.0533,1.0544,1.056,1.0606,1.0622,1.0649,1.0684,1.0698,1.0733,1.0766,1.0793,1.0809,1.0836,1.0851,1.0863,1.0854,1.085,1.0847,1.0847,1.0859,1.0856,1.0887,1.0887,1.0887,0,0,1.0437,1.0474,1.0485,1.0534,1.0563,1.0585,1.0617,1.0639,1.0656,1.0701,1.0726,1.0753,1.0793,1.0812,1.0822,1.0833,1.0841,1.0845,1.0842,1.0845,1.0857,1.0854,1.0852,1.0886,1.0886,1.0886,0,0,1.0412,1.0441,1.0455,1.0483,1.0527,1.0558,1.0561,1.0611,1.0631,1.0657,1.0692,1.0713,1.0758,1.0786,1.0805,1.0793,1.0819,1.0801,1.078,1.0791,1.0789,1.0787,1.0784,1.0783,1.0801,1.0801,1.0801,0,1.0381,1.0416,1.0458,1.0479,1.05,1.0544,1.0558,1.0583,1.0633,1.0646,1.0658,1.0716,1.0746,1.0774,1.0771,1.0785,1.0791,1.0796,1.0786,1.0785,1.0783,1.0781,1.078,1.0798,1.0799,1.0799,1.0799,0,1.0377,1.0402,1.0407,1.0456,1.0478,1.0495,1.054,1.0557,1.0582,1.0612,1.0639,1.0677,1.0713,1.0722,1.0746,1.0754,1.0759,1.0777,1.0797,1.0777,1.0776,1.0776,1.0795,1.0796,1.0797,1.0797,0,0,1.0319,1.0393,1.0394,1.0418,1.047,1.0489,1.0509,1.0546,1.0561,1.0593,1.0612,1.065,1.0668,1.0691,1.0719,1.0728,1.0719,1.0746,1.0748,1.0741,1.0731,1.0718,1.0716,1.0736,1.0736,1.0736,1.0729,0,1.0303,1.0342,1.0381,1.0406,1.043,1.0472,1.049,1.0524,1.0553,1.0578,1.061,1.0637,1.0658,1.0672,1.0683,1.0717,1.0718,1.0718,1.0754,1.0755,1.0744,1.0716,1.0701,1.0693,1.0728,1.0728,1.0728,0,1.0289,1.0322,1.035,1.0402,1.0413,1.0428,1.0467,1.049,1.0529,1.055,1.0577,1.0607,1.0631,1.0647,1.0681,1.0681,1.0698,1.0717,1.0718,1.0723,1.0741,1.0721,1.0691,1.069,1.0728,1.0728,1.0728,0,1.0246,1.0297,1.0321,1.034,1.04,1.0411,1.0436,1.0477,1.0497,1.0531,1.0545,1.058,1.0599,1.0626,1.0666,1.0674,1.0696,1.0715,1.0715,1.0714,1.0718,1.0717,1.069,1.0726,1.0726,1.0727,1.0727,0,1.0225,1.024,1.0303,1.0318,1.0337,1.0382,1.04,1.043,1.0466,1.0487,1.0525,1.0545,1.0595,1.0621,1.0652,1.0676,1.0684,1.0702,1.071,1.0699,1.0697,1.0712,1.0714,1.0726,1.0726,1.0726,1.0726,0,1.018,1.0222,1.0252,1.0308,1.0322,1.0334,1.0382,1.0398,1.043,1.0457,1.0466,1.0516,1.0548,1.0591,1.0635,1.0656,1.0678,1.0689,1.0664,1.0669,1.0667,1.0667,1.0649,1.065,1.0684,1.0684,1.0683,0,1.0164,1.0177,1.0235,1.0253,1.0278,1.0306,1.0328,1.0373,1.0394,1.0442,1.0453,1.0488,1.0519,1.0569,1.0609,1.0644,1.0658,1.065,1.0664,1.0653,1.066,1.0659,1.0662,1.0646,1.0646,1.0645,1.0645,0,1.0132,1.0153,1.0183,1.0221,1.0247,1.0279,1.0313,1.0325,1.0377,1.0399,1.0434,1.0458,1.0505,1.054,1.0581,1.0607,1.0635,1.064,1.0642,1.0632,1.0617,1.0627,1.0656,1.064,1.0641,1.0641,1.0641,1.0642,1.0102,1.0117,1.0161,1.0194,1.0225,1.0256,1.0275,1.031,1.0339,1.0382,1.0407,1.0441,1.0482,1.054,1.0566,1.0593,1.0603,1.0606,1.0607,1.0607,1.0604,1.0612,1.06,1.0601,1.0601,1.0601,1.0601,0,1.0073,1.0104,1.0134,1.0181,1.0208,1.0233,1.0272,1.0292,1.0322,1.0358,1.0389,1.0429,1.0464,1.0508,1.0546,1.0559,1.0573,1.0568,1.0568,1.0574,1.0592,1.0587,1.0556,1.0556,1.0556,1.0556,1.0556,1.0556,1.0061,1.0089,1.0115,1.0158,1.0189,1.0223,1.0244,1.0273,1.0303,1.0347,1.0376,1.0405,1.0445,1.0487,1.052,1.0532,1.0545,1.0536,1.0552,1.0568,1.0572,1.0576,1.0572,1.0538,1.0538,1.0532,1.0532,1.0532]}]]